Regional Weather Roundup
Issued by NWS

Home | Current Version | Previous Version | Text Only | Print | Product List | Glossary Off
Versions: 1 2 3 4 5 6 7 8 9 10 11 12 13 14 15 16 17 18 19 20 21 22 23 24 25 26 27 28 29 30 31 32 33 34 35 36 37 38 39 40 41 42 43 44 45 46 47 48 49 50

000
ASUS44 KMEG 271700
RWRTN
TENNESSEE HOURLY STATE WEATHER ROUNDUP
NATIONAL WEATHER SERVICE MEMPHIS TN
1100 AM CST TUE JAN 27 2015

TNZ002-004-019-021-049-052-054-088>092-271800-
WEST TENNESSEE

CITY           SKY/WX    TMP DP  RH WIND       PRES   REMARKS
MEMPHIS INTL   MOSUNNY   53  36  52 NE13      30.15R
NWS MEMPHIS      N/A     51 N/A N/A MISG        N/A
JACKSON        MOSUNNY   49  35  58 N12       30.13R
DYERSBURG      SUNNY     46  27  46 N16       30.16R
UNION CITY     MOSUNNY   43  36  75 N12       30.14R
PARIS          MOSUNNY   39  30  70 NW9       30.12R WCI  33
LEXINGTON      SUNNY     45  30  57 N14       30.09R
SAVANNAH         N/A     48  36  61 N10       30.11R
$$

TNZ008-025-027-028-033-062-065-066-271800-
NORTH MIDDLE TENNESSEE

CITY           SKY/WX    TMP DP  RH WIND       PRES   REMARKS
NASHVILLE      PTSUNNY   42  33  70 N8        30.08R
CLARKSVILLE    CLOUDY    39  31  72 NW12      30.10R WCI  32
COOKEVILLE     CLOUDY    34  32  93 N6        30.02R WCI  29
CROSSVILLE     CLOUDY    32  28  85 N7        29.98R WCI  26
$$

TNZ061-075-076-078-094-096-097-271800-
SOUTH MIDDLE TENNESSEE

CITY           SKY/WX    TMP DP  RH WIND       PRES   REMARKS
FAYETTEVILLE   MOSUNNY   43  30  61 N17       30.03S
TULLAHOMA        N/A     39  32  75 N12       30.03R WCI  32
WINCHESTER     CLOUDY    39  32  75 N10       30.03R WCI  32
MCMINNVILLE    CLOUDY    36  36 100 N9        30.04R WCI  29
SHELBYVILLE    PTSUNNY   43  34  70 N15       30.06R
$$

TNZ017-018-042-046-047-271800-
NORTHEAST TENNESSEE

CITY           SKY/WX    TMP DP  RH WIND       PRES   REMARKS
TRI CITIES     PTSUNNY   34  23  64 NW10      29.94S WCI  26
ELIZABETHTON   PTSUNNY   28  19  69 VRB7      29.92S WCI  21
$$

TNZ012-013-036-069-073-074-271800-
CENTRAL EAST TENNESSEE

CITY           SKY/WX    TMP DP  RH WIND       PRES   REMARKS
KNOXVILLE      FLURRIES  33  30  88 NE5       30.00R WCI  29
OAK RIDGE      CLOUDY    35  30  82 E3        30.02R
GATLINBURG     CLOUDY    30  27  86 CALM      29.99S
MORRISTOWN     PTSUNNY   34  28  80 NW5       29.97S WCI  30
$$

TNZ083-085-099-271800-
SOUTHEAST TENNESSEE

CITY           SKY/WX    TMP DP  RH WIND       PRES   REMARKS
CHATTANOOGA    PTSUNNY   41  32  70 N10       30.02R
$$

SKY/WX REPORTED AS FAIR MEANS FEW OR NO CLOUDS BELOW
12 THOUSAND FEET.




USA.gov is the U.S. government's official web portal to all federal, state and local government web resources and services.